シューメーカー-リニア彗星

146P/Shoemaker-LINEAR (2024)

English version
Home page
Updated on June 4, 2024

---------------------------------------------------------------------

・ プロフィール

・ 写真集

・ 軌道要素

Epoch 2024 July 29.0 TT = JDT 2460520.5
T 2024 Aug. 5.50863 TT                                  MPCW
q   1.4195449            (2000.0)            P               Q
n   0.12200828     Peri.  317.07324     +0.93950301     -0.13416120
a   4.0260253      Node    53.37641     +0.30273978     +0.75568905
e   0.6474079      Incl.   23.12294     -0.16025828     +0.64104199
P   8.08
From 18 observations 2008 Aug. 21-2016 May 4, mean residual 0".9.

・ 星図

・ 光度変化

        m1 =  9.5 + 5 logΔ + 30   log r(t + 15)  [  ,75]  (              〜2024年10月19日)
        m1 = 13.5 + 5 logΔ + 15.0 log r          [75,  ]  (2024年10月19日〜              )

---------------------------------------------------------------------

軌道要素はM.P.E.C. 2016-K18に掲載されたものです。
星図はステラナビゲータ Ver.11 (アストロアーツ) で作成したものです。
光度グラフはComet for Windowsで作成したものです。

---------------------------------------------------------------------

Copyright(C) Seiichi Yoshida (comet@aerith.net). All rights reserved.